TimeADT,TemperatureF,Dew PointF,Humidity,Sea Level PressureIn,VisibilityMPH,Wind Direction,Wind SpeedMPH,Gust SpeedMPH,PrecipitationIn,Events,Conditions,WindDirDegrees,DateUTC
12:00 AM,15,6,55,29.88,9,West,6.9,,,,,280,2012-10-09 03:00:00
12:00 AM,14.0,6.8,73,29.88,9.0,West,6.9,-,N/A,,Clear,280,2012-10-09 03:00:00
1:00 AM,15.8,6.8,68,29.88,9.0,WSW,6.9,-,N/A,,Clear,250,2012-10-09 04:00:00
2:00 AM,17.6,8.6,68,29.89,9.0,WSW,5.8,-,N/A,,Clear,240,2012-10-09 05:00:00
3:00 AM,14.0,5.0,67,29.89,9.0,WSW,4.6,-,N/A,,Clear,250,2012-10-09 06:00:00
4:00 AM,12.2,3.2,67,29.90,9.0,WNW,10.4,-,N/A,,Clear,300,2012-10-09 07:00:00
5:00 AM,10.4,3.2,73,29.90,9.0,West,8.1,-,N/A,,Clear,270,2012-10-09 08:00:00
6:00 AM,13,5,58,29.90,9,WNW,11.5,,,,,290,2012-10-09 09:00:00
6:00 AM,12.2,5.0,73,29.90,9.0,WNW,10.4,-,N/A,,Clear,290,2012-10-09 09:00:00
7:00 AM,12.2,5.0,73,29.91,9.0,West,9.2,-,N/A,,Clear,260,2012-10-09 10:00:00
8:00 AM,15.8,5.0,62,29.91,9.0,WSW,6.9,-,N/A,,Clear,250,2012-10-09 11:00:00
9:00 AM,14,4,53,29.91,9,West,8.1,,,,,270,2012-10-09 12:00:00
9:00 AM,14.0,5.0,67,29.91,9.0,West,8.1,-,N/A,,Clear,260,2012-10-09 12:00:00
10:00 AM,14.0,5.0,67,29.91,9.0,SW,2.3,-,N/A,,Clear,220,2012-10-09 13:00:00
11:00 AM,15.8,6.8,68,29.91,25.0,West,9.2,-,N/A,,Partly Cloudy,260,2012-10-09 14:00:00
12:00 PM,14,8,67,29.90,9,West,3.5,,,,,270,2012-10-09 15:00:00
12:00 PM,14.0,8.6,79,29.90,25.0,West,4.6,-,N/A,,Mostly Cloudy,270,2012-10-09 15:00:00
1:00 PM,15.8,8.6,73,29.89,25.0,West,3.5,-,N/A,,Mostly Cloudy,270,2012-10-09 16:00:00
2:00 PM,19.4,6.8,58,29.88,25.0,West,5.8,-,N/A,,Mostly Cloudy,260,2012-10-09 17:00:00
3:00 PM,16,8,57,29.89,9,West,5.8,,,,,280,2012-10-09 18:00:00
3:00 PM,15.8,6.8,68,29.89,25.0,West,6.9,-,N/A,,Mostly Cloudy,280,2012-10-09 18:00:00
4:00 PM,15.8,6.8,68,29.89,25.0,West,3.5,-,N/A,,Overcast,270,2012-10-09 19:00:00
5:00 PM,17.6,5.0,58,29.90,25.0,West,4.6,-,N/A,,Overcast,270,2012-10-09 20:00:00
6:00 PM,20,4,36,29.90,9,West,3.5,,,,,270,2012-10-09 21:00:00
6:00 PM,17.6,6.8,63,29.90,25.0,West,3.5,-,N/A,,Mostly Cloudy,260,2012-10-09 21:00:00
7:00 PM,19.4,8.6,63,29.91,25.0,SW,3.5,-,N/A,,Overcast,220,2012-10-09 22:00:00
8:00 PM,19.4,10.4,68,29.91,25.0,West,4.6,-,N/A,,Overcast,260,2012-10-09 23:00:00
9:00 PM,17,8,56,29.91,9,West,2.3,,,,,280,2012-10-10 00:00:00
9:00 PM,17.6,8.6,68,29.91,9.0,WNW,3.5,-,N/A,,Clear,290,2012-10-10 00:00:00
10:00 PM,17.6,8.6,68,29.90,9.0,West,2.3,-,N/A,,Clear,270,2012-10-10 01:00:00
11:00 PM,15.8,8.6,73,29.89,9.0,Calm,Calm,-,N/A,,Partly Cloudy,0,2012-10-10 02:00:00